Weather History for Norman, OK

Change the Weather History Date:

Tuesday, February 26, 2013

  Actual Average Record
Temperature  
Mean Temperature 38 °F -  
Max Temperature 46 °F 61 °F 80 °F (2009)
Min Temperature 30 °F 36 °F 14 °F (1960)
Degree Days  
Heating Degree Days 27    
Moisture  
Dew Point 32 °F    
Average Humidity 84    
Maximum Humidity 100    
Minimum Humidity 57    
Precipitation  
Precipitation 0.00 in - - ()
Sea Level Pressure  
Sea Level Pressure 29.79 in    
Wind  
Wind Speed 17 mph (NW)    
Max Wind Speed 24 mph    
Max Gust Speed 34 mph    
Visibility 9 miles    
Events Snow    
Averages and records for this station are not official NWS values.
T = Trace of Precipitation, MM = Missing Value Source: NWS Daily Summary

Daily Weather History Graph

Daily Weather History Graph

Search for Another Location

Airport:

Trip Planner

Search our weather history database for the weather conditions in past years. The results will help you decide how hot, cold, wet, or windy it might be!

Date:

Astronomy

Feb. 26, 2013 Rise Set
Actual Time 7:02 AM CST 6:22 PM CST
Civil Twilight 6:37 AM CST 6:48 PM CST
Nautical Twilight 6:07 AM CST 7:18 PM CST
Astronomical Twilight 5:38 AM CST 7:47 PM CST
Moon 7:36 PM CST 7:10 AM CST
Length of Visible Light 12h 11m
Length of Day
11h 20m
Full, 99% of the Moon is Illuminated
Feb 26
Full
Mar 4
Last Quarter
Mar 11
New
Mar 19
First Quarter
Mar 27
Full

Hourly Weather History & Observations

Time (CST) Temp. Windchill Dew Point Humidity Pressure Visibility Wind Dir Wind Speed Gust Speed Precip Events Conditions
12:15 AM 32.0 °F 19.5 °F 32.0 °F 100% 29.62 in 7.0 mi NW 21.9 mph 34.5 mph N/A Snow Light Snow
12:35 AM 32.0 °F 20.5 °F 32.0 °F 100% 29.63 in 7.0 mi NNW 18.4 mph 33.4 mph N/A Snow Light Snow
12:55 AM 32.0 °F 19.8 °F 32.0 °F 100% 29.64 in 10.0 mi NNW 20.7 mph 28.8 mph N/A   Overcast
1:15 AM 32.0 °F 19.8 °F 32.0 °F 100% 29.65 in 7.0 mi NNW 20.7 mph 29.9 mph N/A   Light Drizzle
1:35 AM 33.8 °F 21.3 °F 32.0 °F 93% 29.65 in 10.0 mi NNW 24.2 mph 31.1 mph N/A   Overcast
1:55 AM 32.0 °F 19.8 °F 32.0 °F 100% 29.65 in 5.0 mi NW 20.7 mph 28.8 mph N/A Snow Light Snow
2:15 AM 32.0 °F 19.8 °F 32.0 °F 100% 29.66 in 4.0 mi NW 20.7 mph 32.2 mph N/A Snow Light Snow
2:35 AM 32.0 °F 19.2 °F 32.0 °F 100% 29.65 in 4.0 mi NW 23.0 mph 32.2 mph N/A Snow Light Snow
2:55 AM 32.0 °F 19.8 °F 32.0 °F 100% 29.67 in 2.5 mi NNW 20.7 mph 24.2 mph N/A Snow Light Snow
3:35 AM 32.0 °F 20.5 °F 32.0 °F 100% 29.67 in 10.0 mi NNW 18.4 mph 28.8 mph N/A   Overcast
3:55 AM 32.0 °F 19.2 °F 32.0 °F 100% 29.67 in 7.0 mi NNW 23.0 mph 29.9 mph N/A   Overcast
4:35 AM 33.8 °F 21.3 °F 33.8 °F 100% 29.68 in 10.0 mi NNW 24.2 mph 32.2 mph N/A   Overcast
4:55 AM 33.8 °F 21.9 °F 33.8 °F 100% 29.69 in 10.0 mi NNW 21.9 mph 26.5 mph N/A   Overcast
5:15 AM 33.8 °F 21.9 °F 33.8 °F 100% 29.68 in 10.0 mi NNW 21.9 mph 28.8 mph N/A   Overcast
5:35 AM 33.8 °F 21.3 °F 33.8 °F 100% 29.69 in 10.0 mi NNW 24.2 mph 29.9 mph N/A   Overcast
5:55 AM 33.8 °F 21.9 °F 33.8 °F 100% 29.70 in 10.0 mi NNW 21.9 mph 28.8 mph N/A   Overcast
6:15 AM 33.8 °F 22.5 °F 33.8 °F 100% 29.71 in 10.0 mi NNW 19.6 mph 32.2 mph N/A   Overcast
6:35 AM 33.8 °F 24.3 °F 33.8 °F 100% 29.73 in 10.0 mi NW 13.8 mph 24.2 mph N/A   Overcast
6:55 AM 33.8 °F 24.3 °F 33.8 °F 100% 29.75 in 10.0 mi NW 13.8 mph 23.0 mph N/A   Overcast
7:15 AM 33.8 °F 24.3 °F 32.0 °F 93% 29.76 in 10.0 mi WNW 13.8 mph 23.0 mph N/A   Overcast
7:35 AM 33.8 °F 22.8 °F 32.0 °F 93% 29.76 in 10.0 mi NW 18.4 mph 24.2 mph N/A   Overcast
7:55 AM 33.8 °F 23.2 °F 32.0 °F 93% 29.78 in 10.0 mi NW 17.3 mph 26.5 mph N/A   Overcast
8:15 AM 33.8 °F 23.9 °F 32.0 °F 93% 29.78 in 10.0 mi NW 15.0 mph 23.0 mph N/A   Mostly Cloudy
9:15 AM 35.6 °F 25.2 °F 32.0 °F 87% 29.79 in 10.0 mi NNW 18.4 mph - N/A   Clear
9:55 AM 37.4 °F 28.9 °F 33.8 °F 87% 29.81 in 10.0 mi NW 13.8 mph 24.2 mph N/A   Clear
10:15 AM 39.2 °F 30.5 °F 33.8 °F 81% 29.81 in 10.0 mi NW 16.1 mph 23.0 mph N/A   Clear
10:35 AM 41.0 °F 32.8 °F 33.8 °F 76% 29.80 in 10.0 mi NW 16.1 mph 24.2 mph N/A   Clear
10:55 AM 41.0 °F 31.9 °F 33.8 °F 76% 29.82 in 10.0 mi WNW 19.6 mph 26.5 mph N/A   Clear
11:15 AM 41.0 °F 32.2 °F 32.0 °F 70% 29.82 in 10.0 mi WNW 18.4 mph 25.3 mph N/A   Clear
11:35 AM 42.8 °F 34.8 °F 32.0 °F 66% 29.83 in 10.0 mi NW 17.3 mph 24.2 mph N/A   Clear
11:55 AM 42.8 °F 34.3 °F 32.0 °F 66% 29.82 in 10.0 mi WNW 19.6 mph 24.2 mph N/A   Clear
12:15 PM 42.8 °F 34.8 °F 32.0 °F 66% 29.83 in 10.0 mi WNW 17.3 mph 25.3 mph N/A   Clear
12:35 PM 44.6 °F 37.2 °F 32.0 °F 61% 29.82 in 10.0 mi NW 17.3 mph 26.5 mph N/A   Clear
1:15 PM 44.6 °F 37.4 °F 32.0 °F 61% 29.82 in 10.0 mi NNW 16.1 mph 19.6 mph N/A   Clear
1:35 PM 44.6 °F 38.1 °F 30.2 °F 57% 29.82 in 10.0 mi NW 13.8 mph 23.0 mph N/A   Clear
1:55 PM 44.6 °F 38.8 °F 32.0 °F 61% 29.81 in 10.0 mi NW 11.5 mph 18.4 mph N/A   Clear
2:15 PM 44.6 °F 37.8 °F 32.0 °F 61% 29.81 in 10.0 mi NW 15.0 mph 19.6 mph N/A   Clear
2:35 PM 44.6 °F 38.4 °F 32.0 °F 61% 29.81 in 10.0 mi NW 12.7 mph 18.4 mph N/A   Clear
2:55 PM 46.4 °F 41.1 °F 32.0 °F 57% 29.82 in 10.0 mi NNW 11.5 mph 17.3 mph N/A   Clear
3:15 PM 44.6 °F 39.7 °F 32.0 °F 61% 29.81 in 10.0 mi NW 9.2 mph - N/A   Clear
3:35 PM 46.4 °F 41.1 °F 32.0 °F 57% 29.82 in 10.0 mi WNW 11.5 mph - N/A   Clear
3:55 PM 46.4 °F 41.1 °F 32.0 °F 57% 29.83 in 10.0 mi WNW 11.5 mph - N/A   Clear
4:15 PM 44.6 °F 39.7 °F 32.0 °F 61% 29.82 in 10.0 mi WNW 9.2 mph - N/A   Clear
4:35 PM 44.6 °F 39.2 °F 32.0 °F 61% 29.82 in 10.0 mi NW 10.4 mph - N/A   Clear
4:55 PM 44.6 °F 39.7 °F 32.0 °F 61% 29.82 in 10.0 mi NW 9.2 mph - N/A   Clear
5:35 PM 42.8 °F 38.0 °F 32.0 °F 66% 29.83 in 10.0 mi NW 8.1 mph - N/A   Clear
5:55 PM 42.8 °F 37.0 °F 32.0 °F 66% 29.84 in 10.0 mi WNW 10.4 mph - N/A   Clear
6:15 PM 41.0 °F 34.7 °F 32.0 °F 70% 29.85 in 10.0 mi WNW 10.4 mph - N/A   Clear
6:35 PM 39.2 °F 33.6 °F 32.0 °F 75% 29.87 in 10.0 mi NW 8.1 mph - N/A   Clear
6:55 PM 37.4 °F 31.4 °F 32.0 °F 81% 29.87 in 10.0 mi NW 8.1 mph - N/A   Clear
7:35 PM 35.6 °F 28.0 °F 32.0 °F 87% 29.90 in 10.0 mi WNW 10.4 mph - N/A   Clear
7:55 PM 35.6 °F 28.6 °F 32.0 °F 87% 29.90 in 10.0 mi NW 9.2 mph - N/A   Clear
8:15 PM 33.8 °F 27.0 °F 32.0 °F 93% 29.90 in 10.0 mi NNW 8.1 mph - N/A   Clear
8:35 PM 33.8 °F 26.4 °F 30.2 °F 87% 29.90 in 10.0 mi NNW 9.2 mph - N/A   Clear
8:55 PM 33.8 °F 26.4 °F 30.2 °F 87% 29.91 in 10.0 mi NNW 9.2 mph - N/A   Clear
9:15 PM 33.8 °F 26.4 °F 30.2 °F 87% 29.92 in 10.0 mi North 9.2 mph - N/A   Clear
9:35 PM 32.0 °F 25.6 °F 30.2 °F 93% 29.92 in 10.0 mi North 6.9 mph - N/A   Clear
9:55 PM 32.0 °F 27.5 °F 30.2 °F 93% 29.93 in 10.0 mi NNW 4.6 mph - N/A   Clear
10:15 PM 32.0 °F 27.5 °F 30.2 °F 93% 29.93 in 10.0 mi NNW 4.6 mph - N/A   Clear
10:35 PM 30.2 °F 24.3 °F 30.2 °F 100% 29.94 in 10.0 mi NNW 5.8 mph - N/A   Clear
10:55 PM 32.0 °F 28.7 °F 30.2 °F 93% 29.93 in 10.0 mi North 3.5 mph - N/A   Clear
11:15 PM 32.0 °F - 30.2 °F 93% 29.94 in 10.0 mi Calm Calm - N/A   Scattered Clouds
11:55 PM 30.2 °F 25.4 °F 30.2 °F 100% 29.94 in 10.0 mi NW 4.6 mph - N/A   Mostly Cloudy